Location: Hoyos del Collado
(40.3594°N, 5.2003°W)
Time: 14:06:40
(UTC+00:00)

ISS - Pass Details

Date: 28 June 2024
Orbit: 410 x 424 km, 51.6° (Epoch: 13 July)

Event Time Altitude Azimuth Distance (km) Brightness Sun altitude
Exits shadow 02:33:57 46° 297° (WNW) 568 -3.2 -19.6°
Maximum altitude 02:34:24 50° 327° (NNW) 534 -3.2 -19.5°
Drops below altitude 10° 02:37:40 10° 45° (NE) 1,491 0.2 -19.2°
Sets 02:39:49 0° 51° (NE) 2,360 1.4 -19.0°
